Location: Newark
(42.8481°N, 0.4872°E)
Time: 22:37:05
(UTC+00:00)

Transit 2A Rocket - Pass Details

Date: 28 October 2020
Orbit: 588 x 914 km, 66.7° (Epoch: 29 November)

Event Time Altitude Azimuth Distance (km) Brightness Sun altitude
Rises 16:03:21 0° 338° (NNW) 3,360 8.3 8.0°
Reaches altitude 10° 16:08:03 10° 13° (NNE) 2,330 7.2 7.2°
Maximum altitude 16:09:30 11° 29° (NNE) 2,227 7.0 7.0°
Drops below altitude 10° 16:10:56 10° 45° (NE) 2,266 6.9 6.7°
Sets 16:15:15 0° 82° (E) 3,087 7.5 6.0°
